Home   Weather   Iráklion   Past weeks

Flag for Greece Past Weather in Iráklion, Crete, Greece — Yesterday and Last 2 Weeks

68 °F

Partly cloudy.

Feels Like: 68 °F
Forecast: 63 / 72 °F
Wind: 8 mph from North

Location: Heraklion Airport

Current Time: Oct 27, 2016 at 11:46:18 PM

Latest Report: Oct 27, 2016 at 10:50 PM

Visibility: N/A

Pressure: 30.07 "Hg

Humidity: 73%

Dew Point: 59 °F

Location of IráklionLocation

Past Weather in Iráklion — Graph


Iráklion Temperature Yesterday

Maximum temperature yesterday: 70 °F (at 10:50 AM)
Minimum temperature yesterday: 66 °F (at 12:20 AM)
Average temperature yesterday: 67 °F

High & Low Weather Summary for the Past Weeks

High79 °F (Oct 23, 12:50 PM)94% (Oct 24, 12:50 AM)30.18 "Hg (Oct 24, 12:50 AM)
Low59 °F (Oct 14, 5:50 AM)50% (Oct 14, 1:50 PM)29.95 "Hg (Oct 12, 10:20 PM)
Average69 °F70%30.07 "Hg
* Reported Oct 12 10:20 PM — Oct 27 10:20 PM, Iráklion, Weather by CustomWeather, © 2016

Note: Actual official high and low records may vary slightly from our data, if they occured in-between our weather recording intervals... More about our weather records


Iráklion Weather History for the Previous 24 Hours

Scroll right to see more
Time TempWeatherWind HumidityBarometerVisibility
10:20 PM
Thu, Oct 27
68 °FPartly cloudy.9 mph73%30.01 "HgN/A
9:50 PM68 °FPartly cloudy.9 mph73%30.01 "HgN/A
9:20 PM68 °FPartly cloudy.5 mph73%30.01 "HgN/A
8:50 PM68 °FPartly cloudy.6 mph73%30.01 "HgN/A
8:20 PM68 °FPassing clouds.7 mph73%30.01 "HgN/A
7:50 PM68 °FPassing clouds.7 mph73%30.01 "HgN/A
7:20 PM68 °FPassing clouds.8 mph78%30.01 "HgN/A
6:50 PM68 °FPassing clouds.8 mph78%30.01 "HgN/A
6:20 PM70 °FScattered clouds.10 mph69%30.01 "HgN/A
5:50 PM70 °FScattered clouds.10 mph69%30.01 "HgN/A
5:20 PM70 °FScattered clouds.12 mph64%30.01 "HgN/A
4:50 PM70 °FScattered clouds.12 mph64%30.01 "HgN/A
4:20 PM70 °FScattered clouds.10 mph69%30.01 "HgN/A
3:50 PM70 °FScattered clouds.9 mph69%30.01 "HgN/A
3:20 PM72 °FScattered clouds.7 mph73%30.04 "HgN/A
2:50 PM72 °FScattered clouds.7 mph73%30.04 "HgN/A
2:20 PM72 °FScattered clouds.6 mph69%30.04 "HgN/A
1:50 PM72 °FScattered clouds.6 mph69%30.04 "HgN/A
1:20 PM72 °FScattered clouds.7 mph69%30.04 "HgN/A
12:50 PM72 °FScattered clouds.7 mph69%30.04 "HgN/A
12:20 PM72 °FScattered clouds.6 mph69%30.04 "HgN/A
11:50 AM72 °FScattered clouds.5 mph69%30.04 "HgN/A
11:20 AM70 °FPassing clouds.6 mph69%30.04 "HgN/A
10:50 AM70 °FPartly sunny.7 mph69%30.04 "HgN/A
10:20 AM70 °FPassing clouds.8 mph69%30.04 "HgN/A
9:50 AM68 °FScattered clouds.9 mph73%30.04 "HgN/A
9:20 AM68 °FScattered clouds.9 mph73%30.04 "HgN/A
8:50 AM68 °FPassing clouds.8 mph73%30.07 "HgN/A
8:20 AM66 °FPassing clouds.8 mph78%30.01 "HgN/A
7:50 AM68 °FScattered clouds.12 mph78%30.01 "HgN/A
7:20 AM68 °FPassing clouds.12 mph73%30.01 "HgN/A
6:50 AM66 °FPassing clouds.12 mph78%30.01 "HgN/A
6:20 AM66 °FPassing clouds.12 mph78%30.01 "HgN/A
5:50 AM66 °FPassing clouds.9 mph78%30.01 "HgN/A
5:20 AM64 °FPassing clouds.8 mph78%30.01 "HgN/A
4:50 AM64 °FPassing clouds.10 mph78%30.01 "HgN/A
3:50 AM64 °FPassing clouds.12 mph78%30.01 "HgN/A
3:20 AM64 °FPassing clouds.8 mph78%30.01 "HgN/A
2:50 AM64 °FPassing clouds.6 mph78%30.01 "HgN/A
1:20 AM66 °FPassing clouds.7 mph73%30.01 "HgN/A
12:50 AM66 °FPassing clouds.12 mph73%30.01 "HgN/A
12:20 AM66 °FPassing clouds.12 mph73%30.01 "HgN/A
11:50 PM
Wed, Oct 26
66 °FPassing clouds.10 mph73%30.01 "HgN/A
11:20 PM66 °FPassing clouds.12 mph73%30.01 "HgN/A
Weather by CustomWeather, © 2016

See weather overviewHow to use our weather pages